{"data":{"norad_id":63063,"intl_designator":"2025-035M","name":"STARLINK-11399 [DTC]","alt_names":[],"object_type":"PAYLOAD","status":"ACTIVE","operator":null,"country":"US","launch_date":"2025-02-21","launch_site_code":"AFETR","launch_vehicle":null,"mission":null,"orbit_class":"UNKNOWN","rcs_meters":null,"size_class":null,"mass_kg":null,"dimensions":null,"purposes":["comms"],"wikipedia_slug":null,"has_3d_model":false,"image_url":null,"decayed_at":null,"tle_current":{"epoch":"2026-05-25T01:12:17.522784Z","epoch_age_seconds":66893,"freshness":"FRESH","line1":"1 63063U 25035M   26145.05020281  .00162833  00000+0  12402-2 0  9992","line2":"2 63063  42.9995 274.7716 0005322 265.3781  94.6479 15.70971276 73235","mean_motion":15.70971276,"eccentricity":0.0005322,"inclination_deg":42.9995,"raan_deg":274.7716,"arg_perigee_deg":265.3781,"mean_anomaly_deg":94.6479,"bstar":0.0012402,"rev_number":7323,"period_min":91.663038147109,"perigee_km":352.53590481085,"apogee_km":359.70384783,"semimajor_km":6734.2568763204,"source":"CELESTRAK","updated_at":"2026-05-25T13:38:19.873534Z"}}}